RYR96KK LIPZ-EBCI

Flight info

Callsign RYR96KK
Flight time 1h 22m
Altitude 36000
Route ROKIB DCT LAMPO DCT GIKEB DCT BEXOR DCT SOTOV P66 KPT DCT TEDGO L608 MISGI Z104 ODVUX/N0396F280 Z104 GESLO N852 LNO
Aircraft B738/M-SDE2E3FGHIRWXY/LB1

Departure

Time 2026-05-06 15:53
Airport Venice Marco Polo Airport (LIPZ)

Arrival

Time 2026-05-06 17:15
Airport Brussels South Charleroi Airport (EBCI)
Time Latitude Longitude Altitude Speed Heading
2026-05-06 15:29 45.50079 12.33958 13 ft 0 kts 312°
2026-05-06 15:46 45.50078 12.33960 13 ft 2 kts 312°
2026-05-06 15:46 45.50062 12.33988 13 ft 4 kts 301°
2026-05-06 15:46 45.50052 12.34021 12 ft 4 kts 272°
2026-05-06 15:46 45.50057 12.34049 12 ft 1 kts 220°
2026-05-06 15:50 45.50053 12.34044 12 ft 5 kts 220°
2026-05-06 15:50 45.49994 12.33973 12 ft 16 kts 220°
2026-05-06 15:50 45.49889 12.33845 12 ft 23 kts 205°
2026-05-06 15:50 45.49731 12.33799 14 ft 23 kts 196°
2026-05-06 15:51 45.49604 12.33673 14 ft 22 kts 223°
2026-05-06 15:51 45.49505 12.33617 15 ft 7 kts 135°
2026-05-06 15:51 45.49504 12.33619 15 ft 0 kts 132°
2026-05-06 15:52 45.49472 12.33671 14 ft 21 kts 132°
2026-05-06 15:52 45.49451 12.33824 12 ft 17 kts 47°
2026-05-06 15:52 45.49560 12.33964 12 ft 39 kts 42°
2026-05-06 15:52 45.49974 12.34493 11 ft 118 kts 42°
2026-05-06 15:53 45.50746 12.35484 119 ft 172 kts 42°
2026-05-06 15:53 45.51646 12.36681 955 ft 175 kts 43°
2026-05-06 15:53 45.52505 12.37909 1913 ft 177 kts 46°
2026-05-06 15:53 45.53368 12.39252 2689 ft 190 kts 49°
2026-05-06 15:54 45.54089 12.40909 3348 ft 208 kts 79°
2026-05-06 15:54 45.53942 12.42960 3994 ft 215 kts 108°
2026-05-06 15:54 45.53517 12.45092 4069 ft 227 kts 105°
2026-05-06 15:54 45.53152 12.47272 4110 ft 225 kts 103°
2026-05-06 15:55 45.52815 12.49459 4119 ft 227 kts 103°
2026-05-06 15:55 45.52198 12.51503 4107 ft 226 kts 131°
2026-05-06 15:55 45.50948 12.52773 4264 ft 227 kts 163°
2026-05-06 15:55 45.49386 12.52897 5015 ft 227 kts 193°
2026-05-06 15:56 45.47891 12.52193 5950 ft 228 kts 205°
2026-05-06 15:56 45.46637 12.50702 6352 ft 254 kts 239°
2026-05-06 15:56 45.46201 12.48177 6763 ft 276 kts 275°
2026-05-06 15:56 45.46685 12.45498 7553 ft 283 kts 288°
2026-05-06 15:57 45.47330 12.42822 8389 ft 287 kts 288°
2026-05-06 15:57 45.47982 12.40110 9219 ft 291 kts 288°
2026-05-06 15:57 45.48625 12.37349 9738 ft 295 kts 287°
2026-05-06 15:57 45.49257 12.34549 9980 ft 298 kts 287°
2026-05-06 15:58 45.49878 12.31726 9992 ft 299 kts 287°
2026-05-06 15:58 45.50492 12.28902 9996 ft 298 kts 287°
2026-05-06 15:58 45.51098 12.26084 10000 ft 297 kts 286°
2026-05-06 15:58 45.51701 12.23268 10002 ft 297 kts 286°
2026-05-06 15:59 45.52304 12.20452 10003 ft 297 kts 287°
2026-05-06 15:59 45.53026 12.17638 10068 ft 313 kts 300°
2026-05-06 15:59 45.54586 12.15338 10258 ft 337 kts 327°
2026-05-06 15:59 45.56685 12.13632 10466 ft 357 kts 331°
2026-05-06 16:00 45.58919 12.11948 10901 ft 367 kts 332°
2026-05-06 16:00 45.61190 12.10236 11495 ft 371 kts 332°
2026-05-06 16:00 45.63477 12.08479 12111 ft 374 kts 331°
2026-05-06 16:00 45.65769 12.06683 12677 ft 377 kts 330°
2026-05-06 16:01 45.68073 12.04851 13205 ft 381 kts 330°
2026-05-06 16:01 45.70393 12.02987 13714 ft 385 kts 330°
2026-05-06 16:01 45.72735 12.01093 14207 ft 388 kts 330°
2026-05-06 16:01 45.75092 11.99180 14678 ft 391 kts 330°
2026-05-06 16:02 45.77467 11.97248 15127 ft 394 kts 330°
2026-05-06 16:02 45.79859 11.95301 15558 ft 397 kts 330°
2026-05-06 16:02 45.82272 11.93334 15956 ft 399 kts 330°
2026-05-06 16:02 45.84698 11.91360 16293 ft 402 kts 330°
2026-05-06 16:03 45.87141 11.89371 16614 ft 405 kts 330°
2026-05-06 16:03 45.89597 11.87367 16931 ft 407 kts 330°
2026-05-06 16:03 45.92069 11.85346 17238 ft 410 kts 330°
2026-05-06 16:03 45.94551 11.83312 17536 ft 411 kts 330°
2026-05-06 16:04 45.97039 11.81270 17841 ft 413 kts 330°
2026-05-06 16:04 45.99538 11.79217 18127 ft 414 kts 330°
2026-05-06 16:04 46.02044 11.77155 18381 ft 416 kts 330°
2026-05-06 16:04 46.04568 11.75077 18626 ft 418 kts 330°
2026-05-06 16:05 46.07071 11.73014 18860 ft 420 kts 330°
2026-05-06 16:05 46.09613 11.70918 19096 ft 422 kts 330°
2026-05-06 16:05 46.12117 11.68691 19303 ft 423 kts 325°
2026-05-06 16:05 46.14504 11.66199 19507 ft 425 kts 323°
2026-05-06 16:06 46.16878 11.63649 19701 ft 426 kts 323°
2026-05-06 16:06 46.19394 11.61380 19870 ft 429 kts 334°
2026-05-06 16:06 46.22149 11.59718 20068 ft 430 kts 338°
2026-05-06 16:06 46.24950 11.58186 20249 ft 431 kts 339°
2026-05-06 16:07 46.27760 11.56672 20401 ft 432 kts 339°
2026-05-06 16:07 46.30582 11.55140 20558 ft 434 kts 339°
2026-05-06 16:07 46.33409 11.53585 20712 ft 435 kts 339°
2026-05-06 16:07 46.36240 11.52009 20858 ft 436 kts 338°
2026-05-06 16:08 46.39071 11.50419 20998 ft 437 kts 338°
2026-05-06 16:08 46.41905 11.48819 21131 ft 438 kts 338°
2026-05-06 16:08 46.44748 11.47209 21264 ft 439 kts 338°
2026-05-06 16:08 46.47599 11.45593 21386 ft 440 kts 338°
2026-05-06 16:09 46.50456 11.43970 21500 ft 441 kts 338°
2026-05-06 16:09 46.53322 11.42342 21561 ft 443 kts 338°
2026-05-06 16:09 46.56202 11.40705 21606 ft 445 kts 338°
2026-05-06 16:09 46.59089 11.39062 21766 ft 445 kts 338°
2026-05-06 16:10 46.61963 11.37424 21929 ft 444 kts 338°
2026-05-06 16:10 46.64848 11.35778 22037 ft 445 kts 338°
2026-05-06 16:10 46.66757 11.34689 22086 ft 445 kts 338°
2026-05-06 16:10 46.69642 11.33039 22155 ft 446 kts 338°
2026-05-06 16:11 46.72541 11.31380 22233 ft 447 kts 338°
2026-05-06 16:11 46.75442 11.29718 22317 ft 448 kts 338°
2026-05-06 16:11 46.78346 11.28053 22402 ft 448 kts 338°
2026-05-06 16:11 46.81247 11.26387 22469 ft 449 kts 338°
2026-05-06 16:12 46.84161 11.24712 22548 ft 450 kts 338°
2026-05-06 16:12 46.87074 11.23061 22616 ft 450 kts 340°
2026-05-06 16:12 46.90099 11.21865 22664 ft 451 kts 349°
2026-05-06 16:12 46.93178 11.20972 22732 ft 451 kts 344°
2026-05-06 16:13 46.96139 11.19448 22783 ft 451 kts 335°
2026-05-06 16:13 46.98880 11.17211 22845 ft 451 kts 327°
2026-05-06 16:13 47.01510 11.14682 22907 ft 452 kts 326°
2026-05-06 16:13 47.04133 11.12146 22952 ft 452 kts 326°
2026-05-06 16:14 47.06783 11.09648 22998 ft 453 kts 327°
2026-05-06 16:14 47.09433 11.07146 23048 ft 453 kts 325°
2026-05-06 16:14 47.11949 11.04354 23098 ft 453 kts 321°
2026-05-06 16:14 47.14384 11.01417 23149 ft 454 kts 320°
2026-05-06 16:15 47.16804 10.98429 23188 ft 454 kts 320°
2026-05-06 16:15 47.19222 10.95451 23226 ft 454 kts 320°
2026-05-06 16:15 47.21625 10.92520 23272 ft 455 kts 320°
2026-05-06 16:15 47.24101 10.89526 23317 ft 455 kts 320°
2026-05-06 16:16 47.26550 10.86580 23381 ft 455 kts 320°
2026-05-06 16:16 47.29002 10.83635 23441 ft 454 kts 320°
2026-05-06 16:16 47.31451 10.80691 23478 ft 455 kts 320°
2026-05-06 16:16 47.33899 10.77742 23525 ft 455 kts 320°
2026-05-06 16:17 47.36347 10.74789 23588 ft 454 kts 320°
2026-05-06 16:17 47.38800 10.71834 23647 ft 454 kts 321°
2026-05-06 16:17 47.41299 10.69090 23704 ft 454 kts 324°
2026-05-06 16:17 47.43909 10.66452 23759 ft 454 kts 326°
2026-05-06 16:18 47.46540 10.63855 23796 ft 455 kts 326°
2026-05-06 16:18 47.49166 10.61243 23828 ft 455 kts 325°
2026-05-06 16:18 47.51787 10.58593 23858 ft 456 kts 325°
2026-05-06 16:18 47.54400 10.55924 23871 ft 457 kts 325°
2026-05-06 16:19 47.57008 10.53241 23921 ft 456 kts 324°
2026-05-06 16:19 47.59610 10.50552 23971 ft 456 kts 324°
2026-05-06 16:19 47.62215 10.47854 24000 ft 457 kts 324°
2026-05-06 16:19 47.64827 10.45147 24073 ft 458 kts 324°
2026-05-06 16:20 47.67437 10.42441 24188 ft 458 kts 324°
2026-05-06 16:20 47.70058 10.39722 24294 ft 459 kts 324°
2026-05-06 16:20 47.72676 10.37004 24373 ft 460 kts 324°
2026-05-06 16:20 47.75280 10.34249 24442 ft 460 kts 323°
2026-05-06 16:21 47.77802 10.31321 24515 ft 461 kts 320°
2026-05-06 16:21 47.80278 10.28283 24593 ft 461 kts 320°
2026-05-06 16:21 47.82737 10.25202 24665 ft 462 kts 319°
2026-05-06 16:21 47.85195 10.22112 24730 ft 463 kts 319°
2026-05-06 16:22 47.87660 10.19028 24795 ft 463 kts 320°
2026-05-06 16:22 47.90133 10.15949 24858 ft 464 kts 320°
2026-05-06 16:22 47.92616 10.12871 24918 ft 464 kts 320°
2026-05-06 16:22 47.95104 10.09792 24975 ft 465 kts 320°
2026-05-06 16:23 47.97594 10.06713 25029 ft 465 kts 320°
2026-05-06 16:23 48.00090 10.03624 25081 ft 466 kts 320°
2026-05-06 16:23 48.02561 10.00562 25130 ft 466 kts 320°
2026-05-06 16:23 48.05053 9.97471 25178 ft 466 kts 320°
2026-05-06 16:24 48.07552 9.94365 25226 ft 467 kts 320°
2026-05-06 16:24 48.10051 9.91255 25269 ft 467 kts 320°
2026-05-06 16:24 48.12547 9.88143 25311 ft 468 kts 320°
2026-05-06 16:24 48.15044 9.85027 25352 ft 468 kts 320°
2026-05-06 16:25 48.17548 9.81898 25390 ft 468 kts 320°
2026-05-06 16:25 48.20049 9.78769 25426 ft 469 kts 320°
2026-05-06 16:25 48.22550 9.75635 25454 ft 469 kts 320°
2026-05-06 16:25 48.25063 9.72482 25459 ft 470 kts 320°
2026-05-06 16:26 48.27571 9.69330 25466 ft 471 kts 320°
2026-05-06 16:26 48.30082 9.66172 25470 ft 471 kts 320°
2026-05-06 16:26 48.32596 9.63004 25475 ft 472 kts 320°
2026-05-06 16:26 48.35113 9.59830 25480 ft 473 kts 320°
2026-05-06 16:27 48.37630 9.56651 25485 ft 473 kts 320°
2026-05-06 16:27 48.40148 9.53466 25488 ft 473 kts 320°
2026-05-06 16:27 48.42672 9.50269 25493 ft 474 kts 319°
2026-05-06 16:27 48.45191 9.47074 25497 ft 474 kts 319°
2026-05-06 16:28 48.47718 9.43866 25501 ft 474 kts 319°
2026-05-06 16:28 48.50241 9.40657 25506 ft 475 kts 319°
2026-05-06 16:28 48.52762 9.37446 25511 ft 475 kts 319°
2026-05-06 16:28 48.55285 9.34230 25515 ft 475 kts 319°
2026-05-06 16:29 48.57810 9.31007 25517 ft 475 kts 319°
2026-05-06 16:29 48.60346 9.27800 25519 ft 475 kts 321°
2026-05-06 16:29 48.63075 9.24992 25515 ft 476 kts 330°
2026-05-06 16:29 48.66070 9.22845 25528 ft 476 kts 336°
2026-05-06 16:30 48.69125 9.20899 25531 ft 476 kts 337°
2026-05-06 16:30 48.71151 9.19619 25533 ft 476 kts 337°
2026-05-06 16:30 48.75195 9.17028 25536 ft 476 kts 336°
2026-05-06 16:30 48.78277 9.15009 25539 ft 476 kts 336°
2026-05-06 16:31 48.81314 9.12994 25540 ft 476 kts 336°
2026-05-06 16:31 48.84346 9.10973 25548 ft 476 kts 336°
2026-05-06 16:31 48.87341 9.08975 25552 ft 476 kts 336°
2026-05-06 16:31 48.90373 9.06935 25555 ft 476 kts 335°
2026-05-06 16:32 48.93399 9.04854 25557 ft 477 kts 335°
2026-05-06 16:32 48.96422 9.02754 25562 ft 477 kts 335°
2026-05-06 16:32 48.99442 9.00650 25567 ft 477 kts 335°
2026-05-06 16:32 49.02456 8.98552 25570 ft 477 kts 335°
2026-05-06 16:33 49.05472 8.96454 25573 ft 477 kts 335°
2026-05-06 16:33 49.08491 8.94355 25576 ft 477 kts 335°
2026-05-06 16:33 49.11507 8.92257 25578 ft 477 kts 335°
2026-05-06 16:34 49.17538 8.88053 25640 ft 475 kts 335°
2026-05-06 16:34 49.20558 8.85998 25675 ft 475 kts 338°
2026-05-06 16:34 49.23678 8.84300 25680 ft 475 kts 341°
2026-05-06 16:34 49.26832 8.82787 25685 ft 475 kts 343°
2026-05-06 16:35 49.30002 8.81327 25688 ft 476 kts 343°
2026-05-06 16:35 49.33170 8.79861 25692 ft 476 kts 342°
2026-05-06 16:35 49.36335 8.78367 25696 ft 476 kts 342°
2026-05-06 16:35 49.39498 8.76845 25698 ft 476 kts 342°
2026-05-06 16:36 49.42652 8.75306 25703 ft 476 kts 342°
2026-05-06 16:36 49.45810 8.73754 25722 ft 476 kts 342°
2026-05-06 16:36 49.48960 8.72200 25738 ft 476 kts 342°
2026-05-06 16:36 49.52114 8.70644 25747 ft 476 kts 342°
2026-05-06 16:37 49.55264 8.69089 25787 ft 475 kts 342°
2026-05-06 16:37 49.58411 8.67534 25838 ft 474 kts 342°
2026-05-06 16:37 49.61519 8.65998 25878 ft 474 kts 342°
2026-05-06 16:37 49.64653 8.64447 25942 ft 473 kts 342°
2026-05-06 16:38 49.67784 8.62891 25994 ft 472 kts 341°
2026-05-06 16:38 49.70805 8.60926 26045 ft 471 kts 332°
2026-05-06 16:38 49.73587 8.58274 26131 ft 470 kts 323°
2026-05-06 16:38 49.76064 8.54999 26227 ft 468 kts 315°
2026-05-06 16:39 49.78382 8.51477 26373 ft 465 kts 315°
2026-05-06 16:39 49.80699 8.48012 26533 ft 463 kts 316°
2026-05-06 16:39 49.82934 8.44447 26647 ft 462 kts 309°
2026-05-06 16:39 49.84787 8.40380 26749 ft 460 kts 300°
2026-05-06 16:40 49.86233 8.35958 26813 ft 460 kts 291°
2026-05-06 16:40 49.87264 8.31276 26894 ft 460 kts 287°
2026-05-06 16:40 49.88221 8.26521 26964 ft 460 kts 287°
2026-05-06 16:40 49.89166 8.21781 27016 ft 460 kts 287°
2026-05-06 16:41 49.90124 8.17038 27081 ft 461 kts 287°
2026-05-06 16:41 49.91099 8.12293 27125 ft 461 kts 287°
2026-05-06 16:41 49.92083 8.07551 27190 ft 461 kts 288°
2026-05-06 16:41 49.93070 8.02812 27247 ft 462 kts 287°
2026-05-06 16:42 49.94042 7.98123 27269 ft 463 kts 287°
2026-05-06 16:42 49.95026 7.93299 27300 ft 463 kts 287°
2026-05-06 16:42 49.95938 7.88569 27322 ft 464 kts 286°
2026-05-06 16:42 49.96854 7.83691 27335 ft 465 kts 286°
2026-05-06 16:43 49.97750 7.78929 27368 ft 465 kts 286°
2026-05-06 16:43 49.98665 7.74104 27418 ft 465 kts 286°
2026-05-06 16:43 49.99606 7.69300 27479 ft 465 kts 287°
2026-05-06 16:43 50.00601 7.64448 27542 ft 464 kts 287°
2026-05-06 16:44 50.01592 7.59679 27611 ft 464 kts 287°
2026-05-06 16:44 50.02579 7.54904 27676 ft 463 kts 287°
2026-05-06 16:44 50.03558 7.50121 27743 ft 463 kts 287°
2026-05-06 16:44 50.04526 7.45355 27805 ft 463 kts 287°
2026-05-06 16:45 50.05493 7.40573 27865 ft 463 kts 287°
2026-05-06 16:45 50.06443 7.35856 27927 ft 463 kts 287°
2026-05-06 16:45 50.07391 7.31075 28000 ft 462 kts 285°
2026-05-06 16:46 50.08263 7.21193 28139 ft 461 kts 273°
2026-05-06 16:46 50.08585 7.11286 28130 ft 457 kts 272°
2026-05-06 16:46 50.08761 7.06329 27893 ft 460 kts 273°
2026-05-06 16:47 50.08954 7.01381 27463 ft 456 kts 273°
2026-05-06 16:47 50.09154 6.96475 26959 ft 451 kts 273°
2026-05-06 16:47 50.09351 6.91639 26457 ft 444 kts 273°
2026-05-06 16:47 50.09518 6.86873 25958 ft 438 kts 271°
2026-05-06 16:48 50.09490 6.82150 25461 ft 433 kts 268°
2026-05-06 16:48 50.09377 6.77480 24962 ft 429 kts 267°
2026-05-06 16:48 50.09258 6.72849 24463 ft 425 kts 267°
2026-05-06 16:48 50.09144 6.68268 23964 ft 422 kts 268°
2026-05-06 16:49 50.09037 6.63716 23465 ft 419 kts 268°
2026-05-06 16:49 50.08934 6.59200 22967 ft 416 kts 268°
2026-05-06 16:49 50.08831 6.54713 22470 ft 413 kts 268°
2026-05-06 16:49 50.08729 6.50250 21970 ft 411 kts 268°
2026-05-06 16:50 50.08624 6.45817 21470 ft 408 kts 268°
2026-05-06 16:50 50.08518 6.41415 20973 ft 405 kts 268°
2026-05-06 16:50 50.08420 6.37043 20474 ft 403 kts 268°
2026-05-06 16:50 50.08363 6.34171 20142 ft 401 kts 268°
2026-05-06 16:51 50.08251 6.28402 19475 ft 396 kts 268°
2026-05-06 16:51 50.08512 6.24157 18939 ft 395 kts 287°
2026-05-06 16:51 50.09808 6.20436 18457 ft 391 kts 309°
2026-05-06 16:51 50.11779 6.17565 17967 ft 387 kts 324°
2026-05-06 16:52 50.14028 6.15304 17485 ft 383 kts 327°
2026-05-06 16:52 50.15525 6.13857 17151 ft 381 kts 328°
2026-05-06 16:52 50.17773 6.11700 16648 ft 377 kts 328°
2026-05-06 16:52 50.20717 6.08857 15985 ft 373 kts 327°
2026-05-06 16:53 50.22907 6.06717 15485 ft 370 kts 327°
2026-05-06 16:53 50.25078 6.04579 14984 ft 367 kts 327°
2026-05-06 16:53 50.26534 6.03140 14647 ft 366 kts 327°
2026-05-06 16:53 50.28677 6.01013 14147 ft 363 kts 327°
2026-05-06 16:54 50.30799 5.98901 13647 ft 360 kts 327°
2026-05-06 16:54 50.32910 5.96797 13148 ft 358 kts 327°
2026-05-06 16:54 50.34914 5.94525 12637 ft 355 kts 316°
2026-05-06 16:54 50.36488 5.91588 12138 ft 352 kts 302°
2026-05-06 16:55 50.37742 5.88375 11639 ft 340 kts 301°
2026-05-06 16:55 50.38949 5.85255 11129 ft 330 kts 301°
2026-05-06 16:55 50.40125 5.82232 10626 ft 321 kts 301°
2026-05-06 16:55 50.41278 5.79283 10124 ft 313 kts 301°
2026-05-06 16:56 50.42410 5.76401 9622 ft 307 kts 301°
2026-05-06 16:56 50.43520 5.73581 9120 ft 301 kts 301°
2026-05-06 16:56 50.44613 5.70807 8617 ft 296 kts 301°
2026-05-06 16:56 50.45690 5.68074 8118 ft 292 kts 301°
2026-05-06 16:57 50.46751 5.65379 7616 ft 288 kts 301°
2026-05-06 16:57 50.47771 5.62789 7514 ft 274 kts 301°
2026-05-06 16:57 50.48780 5.60226 7342 ft 278 kts 301°
2026-05-06 16:57 50.49793 5.57649 7088 ft 276 kts 301°
2026-05-06 16:58 50.50794 5.55099 6837 ft 273 kts 301°
2026-05-06 16:58 50.51789 5.52565 6585 ft 271 kts 301°
2026-05-06 16:58 50.52774 5.50052 6333 ft 268 kts 301°
2026-05-06 16:58 50.53748 5.47566 6101 ft 266 kts 301°
2026-05-06 16:59 50.54726 5.45064 6037 ft 270 kts 301°
2026-05-06 16:59 50.55704 5.42564 6004 ft 267 kts 301°
2026-05-06 16:59 50.56677 5.40073 6004 ft 267 kts 301°
2026-05-06 16:59 50.57649 5.37582 6001 ft 267 kts 301°
2026-05-06 17:00 50.58623 5.35085 5998 ft 267 kts 301°
2026-05-06 17:00 50.59597 5.32596 6002 ft 267 kts 302°
2026-05-06 17:00 50.60422 5.29995 5999 ft 266 kts 287°
2026-05-06 17:00 50.60904 5.27189 6006 ft 266 kts 283°
2026-05-06 17:01 50.61341 5.24361 6001 ft 266 kts 283°
2026-05-06 17:01 50.61772 5.21522 6002 ft 267 kts 283°
2026-05-06 17:01 50.62200 5.18677 6004 ft 267 kts 283°
2026-05-06 17:01 50.62627 5.15831 6000 ft 267 kts 283°
2026-05-06 17:02 50.63053 5.12982 6007 ft 271 kts 283°
2026-05-06 17:02 50.63483 5.10107 6001 ft 268 kts 283°
2026-05-06 17:02 50.63908 5.07259 5996 ft 266 kts 283°
2026-05-06 17:02 50.64330 5.04429 5998 ft 265 kts 283°
2026-05-06 17:03 50.64753 5.01598 6007 ft 266 kts 283°
2026-05-06 17:03 50.65176 4.98758 6002 ft 266 kts 283°
2026-05-06 17:03 50.65594 4.95949 5988 ft 259 kts 282°
2026-05-06 17:03 50.65718 4.93217 5980 ft 245 kts 258°
2026-05-06 17:04 50.65007 4.90899 5990 ft 231 kts 226°
2026-05-06 17:04 50.63782 4.89378 6006 ft 222 kts 214°
2026-05-06 17:04 50.62489 4.88046 6001 ft 222 kts 213°
2026-05-06 17:04 50.61191 4.86732 6001 ft 221 kts 213°
2026-05-06 17:05 50.59897 4.85430 6001 ft 221 kts 213°
2026-05-06 17:05 50.58602 4.84131 5998 ft 220 kts 212°
2026-05-06 17:05 50.57326 4.82851 6049 ft 216 kts 213°
2026-05-06 17:05 50.56299 4.81165 6104 ft 218 kts 246°
2026-05-06 17:06 50.55826 4.78888 6240 ft 219 kts 249°
2026-05-06 17:06 50.55206 4.76702 6395 ft 214 kts 244°
2026-05-06 17:06 50.54595 4.74695 6512 ft 198 kts 244°
2026-05-06 17:06 50.54028 4.72795 6563 ft 188 kts 245°
2026-05-06 17:07 50.53478 4.70932 6470 ft 191 kts 245°
2026-05-06 17:07 50.52913 4.69007 6139 ft 193 kts 245°
2026-05-06 17:07 50.52163 4.67296 5780 ft 192 kts 217°
2026-05-06 17:07 50.50922 4.66616 5429 ft 191 kts 186°
2026-05-06 17:08 50.49590 4.66496 5069 ft 192 kts 183°
2026-05-06 17:08 50.48261 4.66657 4671 ft 195 kts 160°
2026-05-06 17:08 50.47226 4.67987 4303 ft 196 kts 121°
2026-05-06 17:08 50.46890 4.70040 3949 ft 196 kts 95°
2026-05-06 17:09 50.46822 4.72186 3578 ft 197 kts 92°
2026-05-06 17:09 50.46769 4.74338 3209 ft 197 kts 92°
2026-05-06 17:09 50.46787 4.76406 3104 ft 184 kts 77°
2026-05-06 17:09 50.47465 4.78025 3125 ft 180 kts 34°
2026-05-06 17:10 50.48658 4.78530 3115 ft 182 kts 352°
2026-05-06 17:10 50.49842 4.77867 3132 ft 183 kts 334°
2026-05-06 17:10 50.50984 4.76993 3133 ft 181 kts 332°
2026-05-06 17:10 50.51901 4.75704 3107 ft 177 kts 295°
2026-05-06 17:11 50.52268 4.73887 3112 ft 175 kts 283°
2026-05-06 17:11 50.52557 4.72036 3125 ft 176 kts 283°
2026-05-06 17:11 50.52835 4.70137 3117 ft 180 kts 277°
2026-05-06 17:11 50.52634 4.68278 3124 ft 168 kts 246°
2026-05-06 17:12 50.52187 4.66625 3106 ft 160 kts 246°
2026-05-06 17:12 50.51732 4.64995 3029 ft 166 kts 245°
2026-05-06 17:12 50.51253 4.63340 2831 ft 166 kts 245°
2026-05-06 17:12 50.50776 4.61703 2627 ft 164 kts 245°
2026-05-06 17:13 50.50300 4.60079 2404 ft 162 kts 245°
2026-05-06 17:13 50.49836 4.58494 2195 ft 156 kts 245°
2026-05-06 17:13 50.49396 4.56987 1994 ft 152 kts 245°
2026-05-06 17:13 50.48959 4.55488 1797 ft 150 kts 245°
2026-05-06 17:14 50.48517 4.53975 1593 ft 151 kts 245°
2026-05-06 17:14 50.48087 4.52500 1397 ft 151 kts 245°
2026-05-06 17:14 50.47651 4.51005 1198 ft 150 kts 245°
2026-05-06 17:14 50.47218 4.49517 996 ft 149 kts 245°
2026-05-06 17:15 50.46789 4.48025 767 ft 150 kts 245°
2026-05-06 17:15 50.46355 4.46577 617 ft 141 kts 245°
2026-05-06 17:15 50.46003 4.45357 611 ft 95 kts 246°
2026-05-06 17:15 50.45819 4.44724 615 ft 33 kts 245°
2026-05-06 17:16 50.45732 4.44417 615 ft 36 kts 245°
2026-05-06 17:16 50.45636 4.44098 612 ft 19 kts 248°
2026-05-06 17:16 50.45701 4.44008 612 ft 18 kts 47°
2026-05-06 17:16 50.45737 4.44077 612 ft 0 kts 47°
2026-05-06 17:17 50.45738 4.44079 612 ft 1 kts 47°
2026-05-06 17:17 50.45778 4.44160 612 ft 17 kts 52°
2026-05-06 17:17 50.45861 4.44321 612 ft 19 kts 55°
2026-05-06 17:17 50.45933 4.44493 612 ft 19 kts 57°
2026-05-06 17:18 50.45989 4.44673 612 ft 18 kts 66°
2026-05-06 17:18 50.46040 4.44850 612 ft 17 kts 65°
2026-05-06 17:18 50.46093 4.45018 612 ft 17 kts 66°
2026-05-06 17:18 50.46139 4.45183 612 ft 16 kts 66°
2026-05-06 17:19 50.46184 4.45341 612 ft 16 kts 66°
2026-05-06 17:19 50.46234 4.45516 612 ft 20 kts 66°
2026-05-06 17:19 50.46300 4.45742 612 ft 26 kts 64°
2026-05-06 17:19 50.46384 4.46023 612 ft 31 kts 65°
2026-05-06 17:20 50.46480 4.46350 612 ft 35 kts 65°
2026-05-06 17:20 50.46574 4.46668 612 ft 21 kts 65°
2026-05-06 17:20 50.46659 4.46783 612 ft 17 kts 340°
2026-05-06 17:20 50.46737 4.46845 612 ft 10 kts 66°
2026-05-06 17:21 50.46764 4.46940 612 ft 9 kts 65°
2026-05-06 17:21 50.46792 4.47038 612 ft 11 kts 65°
2026-05-06 17:21 50.46824 4.47146 612 ft 12 kts 65°
2026-05-06 17:21 50.46853 4.47242 612 ft 2 kts 62°
2026-05-06 17:22 50.46869 4.47248 612 ft 3 kts 341°
2026-05-06 17:22 50.46889 4.47234 612 ft 3 kts 336°
2026-05-06 17:22 50.46907 4.47221 612 ft 0 kts 335°